Location: Bull Meadow Creek
(37.8674°N, 120.0624°W)
Time: 20:23:59
(UTC+00:00)

Cosmos 1515 - Visible Passes

Search period start: 19 September 2024 00:00
Search period end: 29 September 2024 00:00
Orbit: 434 x 440 km, 82.5° (Epoch: 18 September)

Date Brightness Start Highest point End Pass type
(mag) Time Alt. Az. Time Alt. Az. Time Alt. Az.
19 Sep 4.6 11:42:52 41° ENE 11:42:52 41° ENE 11:45:38 10° NNE visible
20 Sep 6.6 11:04:27 13° ENE 11:04:27 13° ENE 11:05:18 10° NE visible
20 Sep 5.1 12:37:53 18° NW 12:37:53 18° NW 12:39:35 10° NNW visible
21 Sep 5.2 11:59:19 23° N 11:59:19 23° N 12:00:44 10° N visible
22 Sep 6.4 11:20:39 13° NNE 11:20:39 13° NNE 11:21:07 10° NNE visible
